timestamp,wind_dir_avg,wind_spd_max_dir,wind_spd_avg,wind_spd_gust,battery_voltage,lat,long
2017-09-22 00:00:00+00:00,30.0,36.0,5.09,5.93,12.7,47.59359,-54.27349
2017-09-22 00:10:00+00:00,27.0,26.0,4.76,5.6,12.6,47.59359,-54.27349
2017-09-22 00:20:00+00:00,22.0,28.0,4.45,5.27,12.7,47.59359,-54.27349
2017-09-22 00:30:00+00:00,12.0,2.0,4.98,5.36,12.7,47.59359,-54.27349
2017-09-22 00:40:00+00:00,26.0,30.0,3.2,3.7,12.7,47.59359,-54.27349
2017-09-22 00:50:00+00:00,24.0,30.0,6.17,7.2,12.7,47.59359,-54.27349
2017-09-22 01:00:00+00:00,13.0,17.0,4.37,5.08,12.6,47.59359,-54.27349
2017-09-22 01:10:00+00:00,15.0,16.0,4.64,5.17,12.6,47.59359,-54.27349
2017-09-22 01:20:00+00:00,356.0,357.0,4.16,5.06,12.7,47.59359,-54.27349
2017-09-22 01:30:00+00:00,1.0,0.0,4.98,5.75,12.7,47.59359,-54.27349
2017-09-22 01:40:00+00:00,352.0,347.0,4.58,4.99,12.7,47.59359,-54.27349
2017-09-22 01:50:00+00:00,349.0,344.0,5.51,6.63,12.7,47.59359,-54.27349
2017-09-22 02:00:00+00:00,339.0,343.0,4.63,5.01,12.6,47.59359,-54.27349
2017-09-22 02:10:00+00:00,330.0,330.0,4.24,4.59,12.6,47.59359,-54.27349
2017-09-22 02:20:00+00:00,345.0,346.0,4.96,5.29,12.6,47.59359,-54.27349
2017-09-22 02:30:00+00:00,338.0,339.0,4.35,4.73,12.6,47.59359,-54.27349
2017-09-22 02:40:00+00:00,353.0,354.0,4.04,5.29,12.7,47.59359,-54.27349
2017-09-22 02:50:00+00:00,351.0,351.0,4.76,5.28,12.7,47.59359,-54.27349
2017-09-22 03:00:00+00:00,13.0,11.0,5.43,6.27,12.6,47.59359,-54.27349
2017-09-22 03:10:00+00:00,15.0,17.0,5.15,5.85,12.6,47.59359,-54.27349
2017-09-22 03:20:00+00:00,4.0,4.0,6.61,7.39,12.6,47.59359,-54.27349
2017-09-22 03:30:00+00:00,6.0,5.0,5.49,6.75,12.6,47.59359,-54.27349
2017-09-22 03:40:00+00:00,353.0,356.0,5.91,6.56,12.6,47.59359,-54.27349
2017-09-22 03:50:00+00:00,0.0,2.0,6.18,7.09,12.7,47.59359,-54.27349
2017-09-22 04:00:00+00:00,2.0,8.0,6.1,7.05,12.6,47.59359,-54.27349
2017-09-22 04:10:00+00:00,2.0,1.0,5.95,6.7,12.6,47.59359,-54.27349
2017-09-22 04:20:00+00:00,2.0,9.0,5.54,6.75,12.6,47.59359,-54.27349
2017-09-22 04:30:00+00:00,0.0,357.0,6.47,7.2,12.6,47.59359,-54.27349
2017-09-22 04:40:00+00:00,348.0,345.0,5.77,6.73,12.6,47.59359,-54.27349
2017-09-22 04:50:00+00:00,331.0,335.0,5.18,5.69,12.6,47.59359,-54.27349
2017-09-22 05:00:00+00:00,325.0,325.0,5.12,5.7,12.6,47.59359,-54.27349
2017-09-22 05:10:00+00:00,329.0,328.0,4.83,5.14,12.6,47.59359,-54.27349
2017-09-22 05:20:00+00:00,339.0,341.0,5.81,6.49,12.6,47.59359,-54.27349
2017-09-22 05:30:00+00:00,352.0,351.0,6.02,6.57,12.6,47.59359,-54.27349
2017-09-22 05:40:00+00:00,353.0,355.0,5.64,6.21,12.6,47.59359,-54.27349
2017-09-22 05:50:00+00:00,353.0,354.0,4.69,5.28,12.6,47.59359,-54.27349
2017-09-22 06:00:00+00:00,7.0,10.0,4.74,5.37,12.6,47.59359,-54.27349
2017-09-22 06:10:00+00:00,356.0,358.0,4.34,4.9,12.6,47.59359,-54.27349
2017-09-22 06:20:00+00:00,1.0,1.0,4.92,5.43,12.6,47.59359,-54.27349
2017-09-22 06:30:00+00:00,10.0,10.0,6.08,6.7,12.6,47.59359,-54.27349
2017-09-22 06:40:00+00:00,3.0,3.0,5.8,6.27,12.6,47.59359,-54.27349
2017-09-22 06:50:00+00:00,359.0,4.0,5.95,6.34,12.6,47.59359,-54.27349
2017-09-22 07:00:00+00:00,2.0,3.0,5.29,5.78,12.6,47.59359,-54.27349
2017-09-22 07:10:00+00:00,348.0,344.0,4.85,5.48,12.6,47.59359,-54.27349
2017-09-22 07:20:00+00:00,341.0,338.0,4.21,4.95,12.6,47.59359,-54.27349
2017-09-22 07:30:00+00:00,346.0,346.0,3.79,4.38,12.6,47.59359,-54.27349
2017-09-22 07:40:00+00:00,350.0,347.0,3.71,4.69,12.6,47.59359,-54.27349
2017-09-22 07:50:00+00:00,349.0,344.0,3.45,3.96,12.6,47.59359,-54.27349
2017-09-22 08:00:00+00:00,358.0,358.0,3.92,4.62,12.6,47.59359,-54.27349
2017-09-22 08:10:00+00:00,349.0,352.0,3.37,3.97,12.5,47.59359,-54.27349
2017-09-22 08:20:00+00:00,352.0,351.0,3.86,4.26,12.6,47.59359,-54.27349
2017-09-22 08:30:00+00:00,357.0,356.0,3.68,4.44,12.6,47.59359,-54.27349
2017-09-22 08:40:00+00:00,348.0,345.0,3.28,3.65,12.6,47.59359,-54.27349
2017-09-22 08:50:00+00:00,345.0,345.0,2.48,2.91,12.6,47.59359,-54.27349
2017-09-22 09:00:00+00:00,340.0,345.0,2.34,2.71,12.6,47.59359,-54.27349
2017-09-22 09:10:00+00:00,349.0,346.0,2.35,2.61,12.5,47.59359,-54.27349
2017-09-22 09:20:00+00:00,338.0,339.0,0.96,1.51,12.6,47.59359,-54.27349
2017-09-22 09:30:00+00:00,343.0,344.0,1.6,2.14,12.6,47.59359,-54.27349
2017-09-22 09:40:00+00:00,311.0,294.0,0.98,1.28,12.6,47.59359,-54.27349
2017-09-22 09:50:00+00:00,344.0,345.0,1.46,1.95,12.6,47.59359,-54.27349
2017-09-22 10:00:00+00:00,285.0,287.0,1.81,2.21,13.0,47.59359,-54.27349
2017-09-22 10:10:00+00:00,264.0,268.0,1.58,2.13,13.3,47.59359,-54.27349
2017-09-22 10:20:00+00:00,294.0,301.0,1.63,2.4,14.2,47.59359,-54.27349
2017-09-22 10:30:00+00:00,297.0,292.0,2.08,2.7,13.7,47.59359,-54.27349
2017-09-22 10:40:00+00:00,301.0,301.0,2.3,2.6,13.8,47.59359,-54.27349
2017-09-22 10:50:00+00:00,297.0,297.0,2.05,2.73,13.8,47.59359,-54.27349
2017-09-22 11:00:00+00:00,275.0,272.0,2.23,2.82,13.8,47.59359,-54.27349
2017-09-22 11:10:00+00:00,274.0,271.0,2.74,3.23,13.8,47.59359,-54.27349
2017-09-22 11:20:00+00:00,250.0,257.0,3.67,4.67,13.8,47.59359,-54.27349
2017-09-22 11:30:00+00:00,242.0,241.0,2.88,3.52,13.8,47.59359,-54.27349
2017-09-22 11:40:00+00:00,259.0,259.0,3.29,3.91,13.8,47.59359,-54.27349
2017-09-22 11:50:00+00:00,246.0,243.0,3.1,3.76,13.7,47.59359,-54.27349
2017-09-22 12:00:00+00:00,252.0,246.0,2.89,3.24,13.7,47.59359,-54.27349
2017-09-22 12:10:00+00:00,245.0,245.0,2.88,3.34,13.8,47.59359,-54.27349
2017-09-22 12:20:00+00:00,242.0,246.0,3.07,4.01,13.8,47.59359,-54.27349
2017-09-22 12:30:00+00:00,240.0,237.0,3.4,4.18,13.8,47.59359,-54.27349
2017-09-22 12:40:00+00:00,239.0,233.0,2.94,3.93,13.6,47.59359,-54.27349
2017-09-22 12:50:00+00:00,243.0,243.0,3.75,4.26,13.6,47.59359,-54.27349
2017-09-22 13:00:00+00:00,232.0,228.0,3.34,3.73,13.8,47.59359,-54.27349
2017-09-22 13:10:00+00:00,232.0,230.0,4.12,4.72,13.9,47.59359,-54.27349
2017-09-22 13:20:00+00:00,227.0,230.0,4.09,4.69,13.9,47.59359,-54.27349
2017-09-22 13:30:00+00:00,227.0,228.0,4.72,5.2,13.9,47.59359,-54.27349
2017-09-22 13:40:00+00:00,226.0,231.0,5.15,5.9,13.8,47.59359,-54.27349
2017-09-22 13:50:00+00:00,232.0,232.0,5.43,5.96,13.8,47.59359,-54.27349
2017-09-22 14:00:00+00:00,224.0,221.0,5.34,5.98,13.9,47.59359,-54.27349
2017-09-22 14:10:00+00:00,222.0,222.0,6.88,7.27,14.0,47.59359,-54.27349
2017-09-22 14:20:00+00:00,220.0,221.0,7.78,8.53,13.9,47.59359,-54.27349
2017-09-22 14:30:00+00:00,216.0,217.0,8.41,8.85,13.9,47.59359,-54.27349
2017-09-22 14:40:00+00:00,215.0,217.0,7.83,8.8,13.8,47.59359,-54.27349
2017-09-22 14:50:00+00:00,219.0,218.0,8.78,9.97,13.8,47.59359,-54.27349
2017-09-22 15:00:00+00:00,225.0,219.0,7.94,9.33,13.7,47.59359,-54.27349
2017-09-22 15:10:00+00:00,231.0,232.0,8.07,9.15,13.7,47.59359,-54.27349
2017-09-22 15:20:00+00:00,223.0,228.0,8.84,9.77,13.8,47.59359,-54.27349
2017-09-22 15:30:00+00:00,226.0,226.0,8.38,9.26,13.9,47.59359,-54.27349
2017-09-22 15:40:00+00:00,219.0,222.0,9.9,10.9,13.9,47.59359,-54.27349
2017-09-22 15:50:00+00:00,217.0,220.0,8.88,9.93,13.9,47.59359,-54.27349
2017-09-22 16:00:00+00:00,226.0,219.0,8.95,10.89,14.0,47.59359,-54.27349
2017-09-22 16:10:00+00:00,224.0,228.0,9.97,11.22,13.9,47.59359,-54.27349
2017-09-22 16:20:00+00:00,223.0,231.0,9.29,11.25,13.7,47.59359,-54.27349
2017-09-22 16:30:00+00:00,223.0,224.0,11.15,12.51,13.7,47.59359,-54.27349
2017-09-22 16:40:00+00:00,219.0,212.0,9.83,11.15,13.7,47.59359,-54.27349
2017-09-22 16:50:00+00:00,227.0,234.0,10.54,12.69,13.9,47.59359,-54.27349
2017-09-22 17:00:00+00:00,225.0,229.0,9.72,11.22,13.8,47.59359,-54.27349
2017-09-22 17:10:00+00:00,229.0,232.0,10.67,11.82,13.9,47.59359,-54.27349
2017-09-22 17:20:00+00:00,229.0,233.0,9.91,11.65,13.9,47.59359,-54.27349
2017-09-22 17:30:00+00:00,232.0,233.0,10.93,12.89,13.8,47.59359,-54.27349
2017-09-22 17:40:00+00:00,230.0,226.0,10.95,13.93,13.8,47.59359,-54.27349
2017-09-22 17:50:00+00:00,228.0,226.0,11.05,12.84,13.7,47.59359,-54.27349
2017-09-22 18:00:00+00:00,226.0,230.0,10.55,12.15,13.7,47.59359,-54.27349
2017-09-22 18:10:00+00:00,224.0,221.0,9.55,10.59,13.7,47.59359,-54.27349
2017-09-22 18:20:00+00:00,225.0,222.0,9.71,11.32,13.8,47.59359,-54.27349
2017-09-22 18:30:00+00:00,228.0,232.0,8.31,9.44,13.8,47.59359,-54.27349
2017-09-22 18:40:00+00:00,223.0,231.0,8.36,9.96,13.7,47.59359,-54.27349
2017-09-22 18:50:00+00:00,235.0,234.0,6.17,7.22,13.7,47.59359,-54.27349
2017-09-22 19:00:00+00:00,294.0,298.0,5.86,7.03,13.7,47.59359,-54.27349
2017-09-22 19:10:00+00:00,291.0,293.0,6.45,7.61,14.0,47.59359,-54.27349
2017-09-22 19:20:00+00:00,289.0,296.0,7.49,9.25,13.8,47.59359,-54.27349
2017-09-22 19:30:00+00:00,291.0,291.0,9.0,10.26,14.1,47.59359,-54.27349
2017-09-22 19:40:00+00:00,287.0,287.0,8.85,9.89,13.7,47.59359,-54.27349
2017-09-22 19:50:00+00:00,285.0,285.0,9.42,10.38,14.0,47.59359,-54.27349
2017-09-22 20:00:00+00:00,289.0,287.0,8.17,9.49,14.0,47.59359,-54.27349
2017-09-22 20:10:00+00:00,280.0,282.0,8.29,9.18,13.8,47.59359,-54.27349
2017-09-22 20:20:00+00:00,279.0,280.0,7.89,9.47,13.9,47.59359,-54.27349
2017-09-22 20:30:00+00:00,279.0,277.0,9.51,10.91,13.8,47.59359,-54.27349
2017-09-22 20:40:00+00:00,266.0,267.0,9.99,10.77,13.8,47.59359,-54.27349
2017-09-22 20:50:00+00:00,271.0,269.0,9.6,12.92,13.7,47.59359,-54.27349
2017-09-22 21:00:00+00:00,270.0,273.0,9.4,11.62,13.5,47.59359,-54.27349
2017-09-22 21:10:00+00:00,268.0,267.0,9.91,10.6,13.4,47.59359,-54.27349
2017-09-22 21:20:00+00:00,266.0,268.0,10.65,11.87,13.4,47.59359,-54.27349
2017-09-22 21:30:00+00:00,265.0,263.0,9.76,11.26,13.3,47.59359,-54.27349
2017-09-22 21:40:00+00:00,262.0,261.0,9.16,10.16,13.2,47.59359,-54.27349
2017-09-22 21:50:00+00:00,266.0,265.0,8.36,9.37,13.2,47.59359,-54.27349
2017-09-22 22:00:00+00:00,263.0,262.0,8.63,10.25,13.0,47.59359,-54.27349
2017-09-22 22:10:00+00:00,263.0,258.0,8.89,9.53,12.9,47.59359,-54.27349
2017-09-22 22:20:00+00:00,269.0,271.0,8.06,10.18,12.9,47.59359,-54.27349
2017-09-22 22:30:00+00:00,270.0,270.0,8.15,9.16,12.9,47.59359,-54.27349
2017-09-22 22:40:00+00:00,271.0,275.0,8.85,10.31,12.8,47.59359,-54.27349
2017-09-22 22:50:00+00:00,271.0,263.0,9.38,10.6,12.8,47.59359,-54.27349
2017-09-22 23:00:00+00:00,277.0,278.0,9.41,10.14,12.7,47.59359,-54.27349
2017-09-22 23:10:00+00:00,277.0,274.0,9.78,10.51,12.6,47.59359,-54.27349
2017-09-22 23:20:00+00:00,275.0,274.0,9.51,10.48,12.7,47.59359,-54.27349
2017-09-22 23:30:00+00:00,279.0,277.0,9.2,10.34,12.7,47.59359,-54.27349
2017-09-22 23:40:00+00:00,276.0,277.0,8.0,9.27,12.7,47.59359,-54.27349
2017-09-22 23:50:00+00:00,274.0,276.0,8.35,9.72,12.7,47.59359,-54.27349
